GW0483 Weather Reports


Display with metric or nautical units.
time (UTC)temp
F
wind
direction
speed
MPH
gust
MPH
rain 1hr
in
rain 24hr
in
rain mn
in
humidity
%
barometer
mb
20260903072114 78 103 1.0 1.0 0.00 0.00 0.00 90 1012.6
20260903071610 79 108 1.0 2.0 0.00 0.00 0.00 89 1012.9
20260903071111 79 104 1.0 1.0 0.00 0.00 0.00 89 1012.3
20260903070611 79 82 2.0 2.0 0.00 0.00 0.00 89 1012.6
20260903070107 79 107 2.0 2.0 0.00 0.00 0.00 89 1012.5
20260903065606 79 93 1.0 2.0 0.00 0.00 0.00 88 1012.3
20260903065100 79 159 2.0 2.0 0.00 0.00 0.00 88 1012.6
20260903064555 79 156 4.0 5.0 0.00 0.00 0.00 88 1012.8
20260903064050 79 150 3.0 5.0 0.00 0.00 0.00 87 1012.6
20260903063545 80 140 3.0 3.0 0.00 0.00 0.00 87 1012.8
20260903063041 80 114 2.0 3.0 0.00 0.00 0.00 87 1012.9
20260903062536 80 126 3.0 3.0 0.00 0.00 0.00 87 1012.6
20260903062032 80 112 3.0 3.0 0.00 0.00 0.00 86 1012.6
20260903061527 80 156 3.0 3.0 0.00 0.00 0.00 86 1012.8
20260903061027 80 146 5.0 9.0 0.00 0.00 0.00 86 1012.5
20260903060526 80 150 2.0 3.0 0.00 0.00 0.00 85 1012.8
20260903060021 80 135 5.0 6.0 0.00 0.00 0.00 84 1012.8
20260903055519 81 211 4.0 5.0 0.00 0.00 0.00 84 1012.8
20260903055018 81 145 3.0 3.0 0.00 0.00 0.00 83 1012.8
20260903054513 81 137 3.0 3.0 0.00 0.00 0.00 83 1012.9
20260903054009 81 120 3.0 5.0 0.00 0.00 0.00 82 1012.6
20260903053509 81 128 4.0 5.0 0.00 0.00 0.00 82 1013.0
20260903053005 82 180 3.0 3.0 0.00 0.00 0.00 80 1012.9
20260903052501 82 137 3.0 3.0 0.00 0.00 0.00 78 1012.9
20260903051956 82 74 3.0 5.0 0.00 0.00 0.00 78 1012.8
20260903051451 82 154 3.0 5.0 0.00 0.00 0.00 77 1012.6
20260903050947 82 106 2.0 2.0 0.00 0.00 0.00 77 1012.6
20260903050445 82 123 3.0 5.0 0.00 0.00 0.00 77 1012.4
20260903045940 83 150 5.0 8.0 0.00 0.00 0.00 76 1012.6
20260903045436 83 153 4.0 5.0 0.00 0.00 0.00 75 1012.3
20260903044932 83 184 4.0 6.0 0.00 0.00 0.00 74 1012.6
20260903044433 83 171 4.0 5.0 0.00 0.00 0.00 74 1012.4
20260903043929 84 214 5.0 6.0 0.00 0.00 0.00 74 1012.4
20260903043425 84 110 3.0 3.0 0.00 0.00 0.00 73 1012.0
20260903042923 84 111 3.0 5.0 0.00 0.00 0.00 72 1012.2
20260903042419 84 142 3.0 3.0 0.00 0.00 0.00 72 1012.2
20260903041914 85 130 3.0 3.0 0.00 0.00 0.00 71 1012.1
20260903041410 85 129 3.0 3.0 0.00 0.00 0.00 70 1012.2
20260903040906 85 162 3.0 3.0 0.00 0.00 0.00 69 1012.0
20260903040405 86 92 2.0 2.0 0.00 0.00 0.00 69 1012.3
20260903035901 86 151 4.0 5.0 0.00 0.00 0.00 68 1012.1
20260903035356 86 139 3.0 3.0 0.00 0.00 0.00 68 1012.0
20260903034851 86 125 2.0 2.0 0.00 0.00 0.00 67 1012.0
20260903034347 86 112 3.0 3.0 0.00 0.00 0.00 66 1012.1
20260903033841 87 170 2.0 2.0 0.00 0.00 0.00 65 1011.8
20260903033337 87 124 2.0 2.0 0.00 0.00 0.00 63 1012.1
20260903032836 87 92 1.0 2.0 0.00 0.00 0.00 61 1011.9
20260903032333 87 90 4.0 6.0 0.00 0.00 0.00 60 1011.9
20260903031828 87 97 1.0 1.0 0.00 0.00 0.00 58 1011.8
20260903031327 87 138 3.0 3.0 0.00 0.00 0.00 56 1011.7
20260903030823 85 113 3.0 3.0 0.00 0.00 0.00 58 1011.7
20260903030318 86 75 0.0 0.0 0.00 0.00 0.00 57 1011.3
20260903025814 86 72 0.0 0.0 0.00 0.00 0.00 57 1011.0
20260903025309 86 68 0.0 0.0 0.00 0.00 0.00 58 1011.1
20260903024804 86 133 1.0 1.0 0.00 0.00 0.00 56 1011.1
20260903024303 87 75 1.0 1.0 0.00 0.00 0.00 57 1011.1
20260903023759 87 66 0.0 0.0 0.00 0.00 0.00 54 1010.9
20260903023255 88 63 0.0 0.0 0.00 0.00 0.00 54 1010.8
20260903022755 88 63 0.0 0.0 0.00 0.00 0.00 53 1010.6
20260903022253 88 64 0.0 0.0 0.00 0.00 0.00 53 1010.6
20260903021753 88 65 0.0 0.0 0.00 0.00 0.00 53 1010.7
20260903021249 88 64 0.0 0.0 0.00 0.00 0.00 53 1010.7
20260903020748 88 69 0.0 0.0 0.00 0.00 0.00 53 1010.4
20260903020243 88 64 0.0 0.0 0.00 0.00 0.00 54 1010.4
20260903015738 88 63 0.0 0.0 0.00 0.00 0.00 54 1010.3
20260903015234 88 62 0.0 0.0 0.00 0.00 0.00 54 1010.2
20260903014729 88 61 0.0 0.0 0.00 0.00 0.00 54 1010.3
20260903014228 89 62 0.0 0.0 0.00 0.00 0.00 54 1010.2
20260903013724 89 61 0.0 0.0 0.00 0.00 0.00 53 1010.2
20260903013223 89 62 0.0 0.0 0.00 0.00 0.00 53 1010.1
20260903012721 90 62 0.0 0.0 0.00 0.00 0.00 51 1010.0
20260903012216 90 65 0.0 0.0 0.00 0.00 0.00 51 1010.3
20260903011716 91 71 0.0 0.0 0.00 0.00 0.00 50 1010.1
20260903011210 91 62 0.0 0.0 0.00 0.00 0.00 50 1009.8
20260903010706 91 66 0.0 0.0 0.00 0.00 0.00 49 1009.8
20260903010205 92 66 0.0 0.0 0.00 0.00 0.00 48 1010.3
20260903005704 93 66 0.0 0.0 0.00 0.00 0.00 47 1010.0
20260903005200 93 66 0.0 0.0 0.00 0.00 0.00 46 1010.1
20260903004655 93 71 0.0 0.0 0.00 0.00 0.00 46 1010.1
20260903004150 94 82 1.0 1.0 0.00 0.00 0.00 45 1010.1
20260903003646 94 110 1.0 1.0 0.00 0.00 0.00 44 1010.0
20260903003141 95 62 1.0 1.0 0.00 0.00 0.00 43 1010.0
20260903002636 95 84 1.0 1.0 0.00 0.00 0.00 43 1010.0
20260903002130 95 68 0.0 1.0 0.00 0.00 0.00 42 1010.2
20260903001625 95 84 1.0 1.0 0.00 0.00 0.00 41 1010.0
20260903001119 96 100 1.0 2.0 0.00 0.00 0.00 41 1010.0
20260903000615 96 97 2.0 2.0 0.00 0.00 0.00 40 1010.1
20260903000114 97 100 3.0 3.0 0.00 0.00 0.00 40 1010.1
20260902235613 97 118 2.0 2.0 0.00 0.00 0.00 39 1010.2
20260902235108 98 177 3.0 3.0 0.00 0.00 0.00 38 1010.1
20260902234602 98 80 1.0 1.0 0.00 0.00 0.00 38 1010.0
20260902234101 98 123 2.0 2.0 0.00 0.00 0.00 38 1010.3
20260902233556 99 187 1.0 1.0 0.00 0.00 0.00 38 1010.1
20260902233050 100 93 2.0 2.0 0.00 0.00 0.00 38 1010.2
20260902232549 99 95 1.0 2.0 0.00 0.00 0.00 37 1010.2
20260902232044 99 68 1.0 1.0 0.00 0.00 0.00 37 1010.3
20260902231538 101 133 3.0 3.0 0.00 0.00 0.00 37 1010.4
20260902231032 100 119 1.0 1.0 0.00 0.00 0.00 38 1010.1
20260902230527 100 79 3.0 3.0 0.00 0.00 0.00 37 1010.1
20260902230026 100 194 2.0 2.0 0.00 0.00 0.00 37 1010.3
20260902225522 100 9 0.0 1.0 0.00 0.00 0.00 38 1010.3
20260902225016 99 77 4.0 5.0 0.00 0.00 0.00 38 1010.3
20260902224515 100 139 6.0 8.0 0.00 0.00 0.00 38 1010.2
20260902224011 101 357 2.0 3.0 0.00 0.00 0.00 38 1010.1
20260902223507 100 48 1.0 1.0 0.00 0.00 0.00 37 1010.3
20260902223006 100 152 3.0 3.0 0.00 0.00 0.00 37 1010.2
20260902222504 100 150 3.0 5.0 0.00 0.00 0.00 37 1010.3
20260902221958 102 208 1.0 2.0 0.00 0.00 0.00 37 1010.3
20260902221457 101 38 1.0 1.0 0.00 0.00 0.00 36 1010.4
20260902220948 101 133 4.0 5.0 0.00 0.00 0.00 37 1010.5
20260902220447 102 218 3.0 6.0 0.00 0.00 0.00 36 1010.4
20260902215942 102 103 1.0 2.0 0.00 0.00 0.00 36 1010.4
20260902215437 102 41 1.0 1.0 0.00 0.00 0.00 37 1010.6
20260902214928 101 46 1.0 1.0 0.00 0.00 0.00 37 1010.5
20260902214426 100 111 2.0 2.0 0.00 0.00 0.00 39 1010.6
20260902213921 100 149 1.0 2.0 0.00 0.00 0.00 39 1010.6
20260902213418 103 135 3.0 6.0 0.00 0.00 0.00 37 1010.5
20260902212916 102 142 4.0 6.0 0.00 0.00 0.00 38 1010.8
20260902212412 101 283 2.0 2.0 0.00 0.00 0.00 38 1010.7
20260902211908 100 116 2.0 2.0 0.00 0.00 0.00 38 1010.6
20260902211404 101 210 3.0 6.0 0.00 0.00 0.00 38 1010.8
20260902210859 101 3 5.0 9.0 0.00 0.00 0.00 40 1010.6
20260902210358 100 118 3.0 5.0 0.00 0.00 0.00 40 1010.9
20260902205857 100 155 5.0 8.0 0.00 0.00 0.00 41 1011.1
20260902205351 100 263 6.0 7.0 0.00 0.00 0.00 39 1010.9
20260902204847 100 209 4.0 5.0 0.00 0.00 0.00 41 1011.0
20260902204342 99 138 4.0 7.0 0.00 0.00 0.00 43 1010.9
20260902203837 99 147 7.0 9.0 0.00 0.00 0.00 43 1011.1
20260902203332 100 146 7.0 8.0 0.00 0.00 0.00 42 1011.4
20260902202831 101 266 8.0 10.0 0.00 0.00 0.00 40 1011.4
20260902202322 100 142 8.0 10.0 0.00 0.00 0.00 43 1011.4
20260902201819 100 126 5.0 6.0 0.00 0.00 0.00 42 1011.4
20260902201319 100 120 7.0 8.0 0.00 0.00 0.00 42 1011.6
20260902200814 100 160 5.0 9.0 0.00 0.00 0.00 42 1011.9
20260902200309 100 182 6.0 10.0 0.00 0.00 0.00 42 1011.9
20260902195804 100 295 3.0 6.0 0.00 0.00 0.00 42 1012.0
20260902195306 100 26 3.0 5.0 0.00 0.00 0.00 42 1011.9
20260902194758 100 272 5.0 7.0 0.00 0.00 0.00 43 1012.0
20260902194253 100 86 2.0 2.0 0.00 0.00 0.00 42 1012.2
20260902193749 97 173 5.0 6.0 0.00 0.00 0.00 45 1012.2
20260902193244 97 119 2.0 2.0 0.00 0.00 0.00 47 1012.3
20260902192743 100 145 4.0 7.0 0.00 0.00 0.00 43 1012.8
20260902192242 101 72 7.0 9.0 0.00 0.00 0.00 43 1012.6
20260902191736 99 110 3.0 5.0 0.00 0.00 0.00 43 1012.8
20260902191237 98 104 5.0 6.0 0.00 0.00 0.00 43 1012.8
20260902190732 97 40 0.0 0.0 0.00 0.00 0.00 45 1012.9
20260902190231 99 22 3.0 5.0 0.00 0.00 0.00 43 1013.0
20260902185727 99 143 4.0 6.0 0.00 0.00 0.00 45 1013.0
20260902185223 98 125 4.0 6.0 0.00 0.00 0.00 45 1013.1
20260902184718 98 97 1.0 2.0 0.00 0.00 0.00 45 1013.2
20260902184214 99 288 4.0 6.0 0.00 0.00 0.00 44 1013.3
20260902183710 98 148 3.0 5.0 0.00 0.00 0.00 45 1013.2
20260902183206 99 51 2.0 3.0 0.00 0.00 0.00 44 1013.3
20260902182702 97 24 2.0 2.0 0.00 0.00 0.00 46 1013.5
20260902182158 97 33 2.0 2.0 0.00 0.00 0.00 47 1013.7
20260902181654 97 346 5.0 8.0 0.00 0.00 0.00 48 1013.5
20260902181153 96 114 2.0 3.0 0.00 0.00 0.00 47 1013.8
20260902180648 95 287 5.0 6.0 0.00 0.00 0.00 49 1013.7
20260902180144 95 72 1.0 2.0 0.00 0.00 0.00 48 1013.8
20260902175643 96 276 3.0 3.0 0.00 0.00 0.00 49 1014.1
20260902175140 96 272 2.0 3.0 0.00 0.00 0.00 49 1014.2
20260902174635 96 29 1.0 2.0 0.00 0.00 0.00 48 1014.0
20260902174131 95 90 3.0 5.0 0.00 0.00 0.00 50 1014.3
20260902173626 95 347 2.0 2.0 0.00 0.00 0.00 50 1014.2
20260902173121 95 132 3.0 3.0 0.00 0.00 0.00 50 1014.3
20260902172615 96 6 2.0 2.0 0.00 0.00 0.00 50 1014.3
20260902172109 96 130 3.0 3.0 0.00 0.00 0.00 51 1014.5
20260902171605 94 309 1.0 1.0 0.00 0.00 0.00 53 1014.7
20260902171101 94 228 3.0 3.0 0.00 0.00 0.00 54 1014.5
20260902170556 94 37 1.0 1.0 0.00 0.00 0.00 53 1014.7
20260902170051 94 105 3.0 5.0 0.00 0.00 0.00 54 1014.6
20260902165551 93 46 1.0 1.0 0.00 0.00 0.00 56 1014.6
20260902165046 93 203 3.0 6.0 0.00 0.00 0.00 56 1014.9
20260902164541 93 234 1.0 2.0 0.00 0.00 0.00 54 1014.8
20260902164039 93 127 2.0 2.0 0.00 0.00 0.00 58 1014.8
20260902163536 93 45 1.0 2.0 0.00 0.00 0.00 59 1014.7
20260902163033 92 237 3.0 5.0 0.00 0.00 0.00 59 1014.6
20260902162527 91 135 3.0 3.0 0.00 0.00 0.00 62 1015.0
20260902162023 91 97 2.0 3.0 0.00 0.00 0.00 62 1014.9
20260902161518 90 292 2.0 3.0 0.00 0.00 0.00 63 1014.9
20260902161014 90 105 2.0 2.0 0.00 0.00 0.00 64 1014.7
20260902160509 90 181 2.0 3.0 0.00 0.00 0.00 64 1015.1
20260902160010 89 176 3.0 3.0 0.00 0.00 0.00 65 1015.0
20260902155503 89 221 3.0 3.0 0.00 0.00 0.00 65 1015.0
20260902155001 89 139 2.0 2.0 0.00 0.00 0.00 66 1015.1
20260902154456 89 174 2.0 3.0 0.00 0.00 0.00 67 1014.9
20260902153952 88 36 3.0 5.0 0.00 0.00 0.00 68 1015.0
20260902153450 87 176 4.0 5.0 0.00 0.00 0.00 70 1014.8
20260902152946 87 5 3.0 5.0 0.00 0.00 0.00 69 1014.9
20260902152442 86 194 2.0 2.0 0.00 0.00 0.00 72 1014.8
20260902151936 86 327 4.0 5.0 0.00 0.00 0.00 73 1014.9
20260902151433 86 192 2.0 2.0 0.00 0.00 0.00 75 1014.8
20260902150926 86 101 4.0 5.0 0.00 0.00 0.00 75 1015.0
20260902150423 85 153 1.0 2.0 0.00 0.00 0.00 77 1014.8
20260902145922 85 77 0.0 1.0 0.00 0.00 0.00 77 1014.7
20260902145418 84 185 5.0 6.0 0.00 0.00 0.00 77 1014.9
20260902144913 84 297 3.0 5.0 0.00 0.00 0.00 78 1015.0
20260902144409 84 51 3.0 5.0 0.00 0.00 0.00 80 1014.8
20260902143903 84 191 3.0 3.0 0.00 0.00 0.00 80 1014.9
20260902143358 83 161 2.0 2.0 0.00 0.00 0.00 82 1015.1
20260902142853 83 132 3.0 3.0 0.00 0.00 0.00 82 1015.0
20260902142349 82 88 2.0 3.0 0.00 0.00 0.00 85 1015.0
20260902141844 81 205 3.0 3.0 0.00 0.00 0.00 86 1015.0
20260902141340 80 182 3.0 6.0 0.00 0.00 0.00 88 1015.1
20260902140839 80 94 4.0 5.0 0.00 0.00 0.00 89 1015.0
20260902140334 79 85 2.0 3.0 0.00 0.00 0.00 89 1015.0
20260902135833 79 210 3.0 3.0 0.00 0.00 0.00 90 1014.7
20260902135330 79 66 2.0 2.0 0.00 0.00 0.00 91 1014.9
20260902134828 78 88 2.0 2.0 0.00 0.00 0.00 91 1014.7
20260902134324 78 61 3.0 3.0 0.00 0.00 0.00 92 1014.9
20260902133820 78 289 2.0 3.0 0.00 0.00 0.00 92 1014.9
20260902133319 78 248 2.0 2.0 0.00 0.00 0.00 92 1014.9
20260902132815 77 70 2.0 2.0 0.00 0.00 0.00 92 1014.7
20260902132310 77 140 4.0 5.0 0.00 0.00 0.00 92 1014.9
20260902131806 77 54 1.0 1.0 0.00 0.00 0.00 93 1014.8
20260902131302 76 37 2.0 2.0 0.00 0.00 0.00 93 1014.7
20260902130801 75 233 2.0 3.0 0.00 0.00 0.00 93 1014.6
20260902130257 75 62 1.0 1.0 0.00 0.00 0.00 93 1014.6
20260902125752 75 58 0.0 1.0 0.00 0.00 0.00 93 1014.4
20260902125248 75 69 1.0 1.0 0.00 0.00 0.00 93 1014.6
20260902124744 74 56 2.0 2.0 0.00 0.00 0.00 93 1014.6
20260902124240 74 57 1.0 1.0 0.00 0.00 0.00 93 1014.3
20260902123735 74 95 1.0 1.0 0.00 0.00 0.00 93 1014.5
20260902123231 74 68 1.0 1.0 0.00 0.00 0.00 93 1014.3
20260902122729 74 115 1.0 1.0 0.00 0.00 0.00 93 1014.3
20260902122226 74 66 0.0 1.0 0.00 0.00 0.00 93 1014.3
20260902121725 74 44 0.0 0.0 0.00 0.00 0.00 93 1014.4
20260902121220 74 91 1.0 1.0 0.00 0.00 0.00 93 1014.2
20260902120716 74 31 0.0 0.0 0.00 0.00 0.00 92 1014.3
20260902120213 74 53 0.0 0.0 0.00 0.00 0.00 92 1014.2
20260902115712 74 60 0.0 0.0 0.00 0.00 0.00 92 1014.2
20260902115209 74 44 0.0 0.0 0.00 0.00 0.00 92 1014.2
20260902114704 74 57 0.0 0.0 0.00 0.00 0.00 92 1014.2
20260902114200 74 51 0.0 0.0 0.00 0.00 0.00 92 1014.1
20260902113655 74 53 0.0 0.0 0.00 0.00 0.00 92 1013.9
20260902113149 74 60 0.0 0.0 0.00 0.00 0.00 92 1014.1
20260902112644 74 53 0.0 0.0 0.00 0.00 0.00 92 1013.8
20260902112141 75 60 1.0 1.0 0.00 0.00 0.00 91 1013.8
20260902111636 75 93 1.0 1.0 0.00 0.00 0.00 91 1013.9
20260902111132 75 58 0.0 0.0 0.00 0.00 0.00 91 1014.0
20260902110628 75 59 0.0 1.0 0.00 0.00 0.00 91 1013.8
20260902110124 75 57 1.0 1.0 0.00 0.00 0.00 91 1014.0
20260902105623 75 68 0.0 1.0 0.00 0.00 0.00 91 1013.9
20260902105118 75 57 0.0 1.0 0.00 0.00 0.00 90 1013.8
20260902104614 75 92 2.0 2.0 0.00 0.00 0.00 90 1014.2
20260902104109 75 192 1.0 1.0 0.00 0.00 0.00 90 1014.0
20260902103608 75 57 1.0 1.0 0.00 0.00 0.00 89 1013.8
20260902103104 75 56 0.0 1.0 0.00 0.00 0.00 89 1013.7
20260902102555 75 157 1.0 2.0 0.00 0.00 0.00 89 1013.7
20260902102051 75 107 1.0 2.0 0.00 0.00 0.00 88 1014.0
20260902101547 76 328 1.0 1.0 0.00 0.00 0.00 88 1013.8
20260902101046 76 145 0.0 1.0 0.00 0.00 0.00 88 1013.7
20260902100545 76 192 1.0 1.0 0.00 0.00 0.00 88 1013.9
20260902100040 76 71 2.0 3.0 0.00 0.00 0.00 87 1013.8
20260902095540 76 240 1.0 2.0 0.00 0.00 0.00 87 1013.8
20260902095038 76 312 0.0 1.0 0.00 0.00 0.00 87 1013.7
20260902094535 76 239 1.0 2.0 0.00 0.00 0.00 86 1013.9
20260902094030 76 120 1.0 2.0 0.00 0.00 0.00 86 1013.9
20260902093525 77 157 3.0 5.0 0.00 0.00 0.00 86 1013.8
20260902093025 77 96 1.0 1.0 0.00 0.00 0.00 86 1014.0
20260902092520 77 88 1.0 1.0 0.00 0.00 0.00 85 1013.9
20260902092015 77 106 1.0 2.0 0.00 0.00 0.00 85 1014.1
20260902091510 77 116 2.0 3.0 0.00 0.00 0.00 85 1014.2
20260902091006 77 237 2.0 2.0 0.00 0.00 0.00 85 1014.1
20260902090501 77 105 1.0 1.0 0.00 0.00 0.00 85 1013.9
20260902090000 77 95 1.0 1.0 0.00 0.00 0.00 84 1013.8
20260902085455 77 159 2.0 3.0 0.00 0.00 0.00 84 1014.0
20260902084950 77 135 1.0 1.0 0.00 0.00 0.00 84 1014.1
20260902084447 77 204 2.0 3.0 0.00 0.00 0.00 84 1014.0
20260902083943 77 163 3.0 3.0 0.00 0.00 0.00 83 1014.0
20260902083442 77 116 2.0 2.0 0.00 0.00 0.00 83 1013.9
20260902082937 77 116 3.0 3.0 0.00 0.00 0.00 83 1013.9
20260902082433 77 100 3.0 5.0 0.00 0.00 0.00 83 1014.0
20260902081929 77 125 1.0 2.0 0.00 0.00 0.00 83 1014.3
20260902081425 77 130 2.0 3.0 0.00 0.00 0.00 83 1014.1
20260902080920 77 72 1.0 1.0 0.00 0.00 0.00 83 1014.2
20260902080416 77 110 2.0 2.0 0.00 0.00 0.00 83 1014.2
20260902075915 77 221 1.0 2.0 0.00 0.00 0.00 83 1014.4
20260902075412 77 98 2.0 2.0 0.00 0.00 0.00 82 1014.3
20260902074907 77 189 1.0 2.0 0.00 0.00 0.00 82 1014.4
20260902074403 77 191 2.0 2.0 0.00 0.00 0.00 82 1014.3
20260902073857 78 92 1.0 2.0 0.00 0.00 0.00 82 1014.1
20260902073354 78 136 2.0 2.0 0.00 0.00 0.00 82 1014.1
20260902072849 78 82 1.0 1.0 0.00 0.00 0.00 81 1014.2
20260902072345 78 67 1.0 1.0 0.00 0.00 0.00 81 1014.3